Theta_e
318 317 317 317 316 316 317 316 316 316 318 320 321 321 322 324 325 327 330 334 336 336 336 335 334 334 333 334 335 337 338 339 338 338 337 337 337 336 335 334 334 333 332
317 317 316 316 315 315 315 315 316 316 316 318 320 321 321 322 322 325 332 332 335 338 338 337 337 337 338 338 340 344 343 342 338 335 335 336 336 335 334 334 333 331 331
316 315 315 315 315 316 317 318 319 319 317 318 321 322 321 321 321 323 325 327 331 334 335 335 340 340 341 343 344 342 344 343 339 336 333 334 334 333 332 331 330 330 330
315 316 316 317 317 317 316 318 319 319 319 321 321 320 320 321 322 321 322 325 327 328 336 339 342 344 344 343 344 344 343 341 340 335 333 332 332 332 332 330 329 329 330
315 315 315 315 314 314 315 315 316 317 317 317 319 320 324 325 323 322 321 325 327 328 329 335 336 344 344 344 344 346 344 341 338 334 330 329 329 329 329 328 327 328 328
312 312 313 312 314 315 315 315 315 314 313 312 311 313 314 319 321 320 322 323 323 325 329 331 336 340 342 345 347 345 344 342 337 334 330 329 330 330 329 328 327 327 327
312 312 313 313 313 313 313 313 312 312 312 311 310 310 310 311 319 322 320 320 322 324 327 329 333 338 341 344 343 344 343 341 341 339 334 333 333 333 330 327 328 327 326
310 311 312 312 312 312 312 312 312 312 311 311 310 310 310 311 318 321 320 322 325 325 324 330 331 335 341 342 342 341 341 341 340 338 336 335 333 332 331 330 328 328 327
309 309 310 311 311 311 311 311 311 311 311 311 310 311 312 310 317 320 321 324 325 323 324 330 334 338 340 341 341 340 340 338 337 335 333 332 331 331 331 329 327 327 325
306 307 309 310 311 310 311 311 311 311 311 311 311 310 312 312 315 320 320 325 327 328 330 332 334 338 339 339 339 340 334 335 334 332 331 331 331 331 330 329 328 327 325
307 307 309 310 310 310 311 311 311 311 311 310 310 312 314 314 317 318 321 322 322 325 329 334 335 337 336 337 336 338 336 334 332 332 331 330 330 330 329 329 329 328 327
307 308 308 309 309 309 310 309 309 310 310 311 311 313 314 315 316 321 321 319 320 326 330 334 335 334 333 334 336 335 335 333 331 330 330 330 330 330 329 329 329 329 328
305 306 307 308 308 309 309 309 309 310 311 311 313 314 315 316 319 321 318 318 323 329 330 334 330 327 332 335 332 333 332 331 329 328 328 328 329 328 329 329 328 328 328
306 307 307 308 309 309 309 309 310 310 311 312 313 314 315 318 318 320 318 318 322 328 330 333 330 330 333 333 331 331 330 330 330 329 328 328 327 327 327 327 328 328 328
305 306 306 306 307 308 309 309 310 310 312 313 314 316 317 320 319 320 321 322 325 326 327 327 324 326 325 326 329 329 330 329 330 329 328 327 327 327 327 327 327 327 326
306 306 307 308 309 309 310 311 312 313 313 313 313 314 315 318 321 322 319 318 326 326 325 327 327 327 327 327 327 328 329 329 329 329 328 328 328 327 327 327 327 327 326
305 305 307 308 310 310 311 311 311 313 314 315 316 317 318 319 318 316 315 320 326 325 328 327 326 326 326 326 327 328 327 327 329 329 328 328 328 326 326 327 327 326 325
306 307 308 309 310 311 311 312 312 312 312 312 316 317 318 318 317 316 316 323 321 324 327 326 324 327 327 327 328 328 328 329 329 329 328 328 327 327 327 327 326 325 325
306 308 309 310 310 310 311 312 312 313 314 315 315 315 316 317 318 318 320 323 326 326 326 324 325 326 327 327 328 328 328 328 328 327 327 327 327 326 326 325 324 324 324
307 308 309 310 312 310 311 312 314 316 317 315 313 312 314 315 312 314 318 327 326 325 324 324 325 326 326 326 326 326 326 327 327 327 327 326 326 325 324 324 323 323 323
309 310 311 311 312 314 314 315 315 316 316 316 313 314 319 318 316 319 324 325 325 324 324 325 326 326 327 327 327 327 327 327 327 327 326 326 326 325 324 324 324 324 323
309 310 312 311 314 316 316 317 319 317 315 317 315 317 321 324 325 324 323 324 325 325 326 325 326 326 326 327 327 327 326 326 326 326 326 325 325 325 324 325 324 324 323
316 321 322 322 322 322 322 319 319 318 316 317 316 316 320 324 323 322 322 324 325 326 327 328 327 327 327 327 327 325 323 324 325 326 325 325 324 324 323 321 321 320 318
323 322 322 321 321 320 319 319 320 319 320 321 320 320 318 317 317 318 322 323 325 325 326 326 326 326 326 326 325 324 324 325 326 326 325 324 323 320 319 317 316 313 307
319 318 318 318 317 317 316 315 315 316 315 314 312 311 311 312 314 315 317 320 322 323 324 324 324 324 324 323 323 323 325 325 324 324 324 323 319 316 314 308 305 301 299
316 316 316 315 314 314 313 312 311 310 309 309 309 309 310 310 310 312 315 318 320 321 322 322 322 324 324 325 325 325 325 324 323 322 320 316 311 305 302 299 298 296 295
Wind_Speed
28 27 25 22 19 15 15 14 14 13 12 12 11 12 13 15 16 20 23 27 28 29 32 32 33 33 32 27 25 26 25 19 8 5 9 10 10 9 9 8 7 9 10
34 32 28 24 20 17 15 16 17 18 17 15 15 14 14 15 17 19 22 24 26 28 31 24 29 24 26 25 22 26 23 24 19 8 10 11 9 9 11 9 7 9 10
33 33 28 25 22 20 16 13 13 16 19 19 19 20 19 19 19 20 22 24 26 28 30 33 28 22 24 25 25 26 23 22 20 11 10 9 10 11 11 8 8 9 10
26 27 27 27 25 22 17 10 7 6 8 12 16 21 24 24 22 21 21 24 25 28 27 28 32 25 29 29 29 28 22 20 19 15 9 7 9 10 10 8 8 7 10
18 19 24 26 23 20 18 15 12 10 10 11 12 15 19 22 24 23 22 23 25 29 30 28 30 30 31 32 29 27 23 20 17 15 8 6 8 7 10 7 7 7 9
17 27 25 19 17 16 13 12 12 12 13 15 15 18 22 24 27 28 24 25 27 28 31 32 31 31 33 30 31 27 27 23 20 15 11 8 15 13 10 10 8 6 2
16 17 18 19 18 16 15 15 17 18 18 22 23 25 27 29 29 28 29 28 30 26 29 32 30 31 34 30 27 22 21 15 18 21 21 19 17 18 15 11 15 14 9
28 29 28 25 22 21 21 23 25 26 29 31 31 29 30 30 28 27 23 25 27 26 30 32 31 33 33 30 23 23 18 18 19 17 16 16 15 12 13 15 19 17 9
30 30 29 31 30 28 30 33 33 30 30 32 32 32 31 31 29 26 20 22 25 27 31 31 30 31 33 28 23 22 19 20 19 16 15 14 9 9 12 15 15 15 4
35 32 31 32 33 31 33 33 36 34 33 29 29 30 33 33 28 25 18 18 21 25 30 29 29 29 29 21 24 20 23 22 19 18 15 13 10 10 13 18 18 17 5
35 34 32 33 36 36 33 34 34 35 32 30 31 32 33 35 28 27 19 18 21 26 23 25 28 18 12 15 11 26 28 23 20 19 15 12 11 12 17 16 15 15 10
32 31 28 29 29 26 31 29 30 31 28 26 27 27 32 33 31 25 17 17 23 22 23 25 23 16 12 9 21 28 19 21 21 19 17 14 14 15 16 14 12 11 7
40 39 36 35 32 31 27 24 23 25 23 21 21 21 22 30 26 21 15 19 22 23 22 27 23 22 12 22 31 23 20 24 23 21 18 17 17 15 14 12 10 9 8
31 28 24 21 22 24 24 24 22 21 21 20 20 19 21 28 23 22 15 19 22 21 22 26 33 27 24 31 27 23 23 25 25 22 21 16 14 15 16 14 10 10 8
32 31 31 30 28 27 27 27 26 27 27 21 21 22 19 19 23 18 13 16 18 18 22 23 25 27 21 24 25 26 24 23 22 21 19 20 19 17 16 14 11 10 6
25 22 22 22 22 23 21 20 27 28 27 29 30 29 29 27 19 14 15 18 18 21 22 19 20 22 22 19 20 21 22 23 23 22 23 21 18 18 16 14 11 10 8
25 22 23 24 21 20 20 18 12 22 26 28 28 30 28 28 24 19 16 17 20 26 15 16 19 22 21 20 20 20 19 21 24 25 24 20 16 15 16 15 12 10 7
25 22 20 19 18 18 18 17 16 13 11 19 32 31 32 34 29 25 19 15 26 15 19 20 19 25 26 25 24 23 21 19 22 24 22 19 19 19 16 14 12 9 7
16 15 18 18 19 20 20 18 17 18 17 14 15 20 28 30 28 25 19 23 24 18 19 18 25 28 27 27 25 23 24 24 22 22 21 19 16 16 13 12 9 8 8
17 21 21 17 16 20 19 19 17 16 14 11 10 9 7 10 14 20 26 20 20 21 23 24 28 30 30 27 24 24 24 23 21 19 18 17 16 15 14 12 10 8 7
15 17 22 20 19 17 17 17 16 17 14 14 14 15 18 18 16 22 19 21 22 23 28 30 31 31 29 26 26 24 23 21 19 18 19 17 16 15 12 11 10 8 9
13 15 20 22 19 19 21 22 18 20 19 17 17 19 20 18 19 19 21 24 26 30 32 32 31 28 28 27 25 24 21 19 16 20 20 16 16 15 14 13 11 10 12
19 13 14 17 16 17 19 19 18 19 19 18 21 22 18 18 21 23 25 27 28 29 29 29 27 25 24 22 22 21 18 19 21 20 20 19 17 15 14 15 16 18 19
15 19 18 17 15 16 19 19 20 22 23 18 22 24 23 27 27 29 30 29 29 28 27 27 27 26 23 20 19 17 17 18 20 20 21 20 20 19 19 20 20 20 21
18 20 19 19 18 18 20 21 21 21 21 21 23 23 27 29 31 31 31 32 31 30 27 26 24 23 20 19 18 19 18 20 20 19 20 21 23 23 24 24 24 24 25
20 19 18 19 19 19 19 20 20 22 22 22 24 26 29 29 30 31 31 31 31 29 27 25 23 22 21 20 20 21 21 20 21 22 26 27 27 27 27 28 28 27 24
Wind_Direction
201 207 208 212 215 221 231 239 249 259 264 267 274 286 292 288 288 280 279 278 275 272 271 267 265 263 254 259 268 255 240 214 233 269 241 229 225 230 236 239 259 274 286
206 210 214 219 221 225 240 252 255 260 263 265 268 274 275 273 279 280 275 277 275 277 280 260 251 243 258 265 256 241 244 240 225 220 215 212 211 213 222 233 255 274 277
217 217 218 217 219 227 230 242 252 258 256 265 267 263 261 268 273 278 280 280 277 277 282 287 282 280 260 255 258 266 261 259 228 213 198 199 202 206 206 227 250 269 270
244 240 229 220 211 209 210 218 229 254 273 278 276 271 270 266 267 277 286 288 285 288 282 286 291 281 270 272 270 263 266 243 216 201 179 178 192 204 204 221 238 258 261
222 219 219 214 216 218 214 216 225 242 261 279 299 301 290 279 277 282 289 291 293 292 294 289 286 284 284 274 269 264 261 229 207 193 167 177 185 189 193 209 228 233 243
234 229 227 223 216 214 216 223 236 246 265 278 283 290 296 296 282 284 286 288 291 297 289 290 288 286 280 274 268 269 259 212 202 195 187 200 208 206 191 200 193 191 233
253 242 231 229 231 232 240 251 258 268 282 282 283 286 287 289 290 279 285 288 286 292 292 287 283 280 281 275 266 257 239 236 235 225 207 211 215 217 204 196 204 207 210
265 260 255 249 252 259 266 267 270 274 277 281 285 284 283 281 282 279 281 286 285 291 294 293 284 281 275 269 254 231 215 214 218 224 225 226 230 227 227 226 219 214 214
252 248 244 242 244 244 248 254 260 259 258 262 269 280 272 273 271 275 275 284 289 292 294 291 286 281 274 260 236 214 199 201 206 204 205 222 231 217 217 208 197 185 208
253 249 241 227 227 229 234 239 249 254 257 262 268 271 270 272 266 268 271 283 290 292 293 291 289 279 270 245 215 207 186 190 181 180 194 194 195 198 213 213 206 188 159
256 251 236 221 222 227 229 234 236 239 240 249 261 261 261 268 258 270 262 275 284 289 284 282 285 259 263 259 267 231 203 177 173 180 180 175 180 191 196 202 209 205 194
245 238 230 225 221 227 229 227 229 233 236 243 248 253 259 263 258 261 256 272 277 280 268 270 265 208 206 258 241 218 193 181 174 175 173 168 174 188 193 194 199 208 211
237 239 241 238 233 229 222 218 221 228 227 236 237 244 253 265 241 253 259 275 282 276 267 257 222 201 209 207 213 199 183 181 176 173 176 183 193 197 184 179 181 189 191
232 225 219 214 215 218 222 226 226 220 220 227 234 238 242 243 236 253 265 286 286 279 262 240 202 190 207 205 200 189 182 184 182 184 187 186 184 181 180 175 174 178 198
221 224 224 224 226 226 226 227 226 228 223 219 224 229 234 237 233 250 269 290 294 271 213 188 166 166 174 189 190 182 187 187 186 191 181 179 178 172 173 172 177 174 193
210 207 208 209 208 211 211 214 219 225 233 242 249 249 247 248 246 246 271 292 280 218 173 173 157 161 169 168 166 176 185 189 193 186 181 180 177 177 168 170 175 181 186
206 210 209 202 205 202 206 209 209 225 233 240 237 233 237 245 250 256 270 277 243 195 187 157 159 159 160 167 169 173 178 187 195 189 183 181 175 174 177 176 171 169 177
196 192 186 195 200 193 194 201 205 203 218 233 235 236 237 243 248 253 259 254 184 192 169 154 166 162 169 173 179 178 177 177 185 184 180 178 180 176 173 170 171 170 167
171 194 196 200 197 198 203 207 208 213 222 221 229 236 242 244 245 246 230 186 176 163 163 175 164 167 167 170 166 161 164 167 168 167 170 174 178 178 171 159 156 154 151
197 199 201 205 198 202 208 210 210 206 204 191 197 202 187 172 169 187 185 182 166 163 171 174 165 167 171 167 165 172 167 162 161 165 170 174 177 174 161 159 163 162 169
193 197 201 209 210 206 206 208 209 212 176 165 175 176 159 170 179 171 169 161 169 167 169 165 167 170 166 166 170 167 162 160 163 165 166 161 159 160 165 166 165 161 160
224 225 216 214 224 199 203 210 201 166 163 150 152 151 159 162 149 145 142 156 166 169 167 163 162 163 170 172 168 163 152 148 159 160 156 158 160 164 166 165 159 147 140
224 197 143 149 143 126 149 151 156 150 153 157 162 157 159 139 155 129 143 154 155 154 157 157 157 163 168 167 158 153 160 173 171 168 163 161 159 156 153 142 138 132 129
99 91 97 100 95 92 92 102 122 141 147 139 132 126 128 127 122 132 141 142 144 144 149 153 155 152 149 151 157 165 167 168 168 168 166 161 152 146 140 135 133 128 126
71 77 81 89 92 92 87 91 97 103 99 98 103 100 103 113 122 131 135 137 137 140 143 146 147 147 147 152 157 161 162 163 162 166 167 159 147 140 135 130 127 124 124
73 75 73 78 78 81 84 86 85 88 89 92 97 104 113 117 125 131 133 135 135 135 137 139 140 144 147 151 153 155 158 160 159 157 150 145 140 134 131 126 124 120 117